Regional Weather Roundup
Issued by NWS New Orleans/Baton Rouge, LA

Home | Current Version | Previous Version | Graphics & Text | Print | Product List | Glossary On
Versions: 1 2 3 4 5 6 7 8 9 10 11 12 13 14 15 16 17 18 19 20 21 22 23 24 25 26 27 28 29 30 31 32 33 34 35 36 37 38 39 40 41 42 43 44 45 46 47 48 49 50
549
ASUS44 KLIX 240901
RWRLIX
NEW ORLEANS REGIONAL WEATHER ROUNDUP
NATIONAL WEATHER SERVICE NEW ORLEANS LA
400 AM CDT FRI OCT 24 2014

NOTE: "FAIR" INDICATES FEW OR NO CLOUDS BELOW 12,000 FEET WITH NO
      SIGNIFICANT WEATHER AND/OR OBSTRUCTIONS TO VISIBILITY.
      SKY/WX - SKY CONDITION AND SIGNIFICANT WEATHER.
      TMP - AIR TEMPERATURE.     DP    - DEWPOINT TEMPERATURE.
      RH  - RELATIVE HUMIDITY.   PRES  - PRESSURE.
      HI  - HEAT INDEX.          WCI   - WIND CHILL INDEX.

*  THESE STATIONS ARE NOT NWS OR FAA STATIONS AND ARE NOT UNDER
   NWS QUALITY CONTROL.

LAZ038-040-048-061>063-065>067-069-241000-
SOUTHEAST LOUISIANA

CITY           SKY/WX    TMP DP  RH WIND       PRES   REMARKS
N.O. AUDUBON     N/A     58  51  77 MISG        N/A
N.O. INTL ARPT CLEAR     60  51  72 NE9       30.08R
N.O. LAKEFRONT CLEAR     64  53  67 NE14      30.08R
N.O. DOWNTOWN*   N/A     63  45  51 N3        30.09R
SLIDELL        CLEAR     49  47  93 N3        30.08R
BATON ROUGE    PTCLDY    52  49  89 CALM      30.09S
BOOTHVILLE     CLEAR     67  57  70 N6        30.05S
BELLE CHASSE   CLEAR     51  47  86 N3        30.07S
BOGALUSA*        N/A     50  47  88 CALM      30.11R
NEW ROADS*       N/A     48  47  97 NW3       30.10S
GONZALES*        N/A     53  53  97 NE3       30.09S
HAMMOND*       NOT AVBL
HOUMA*         CLEAR     54  52  94 N3        30.08R
PORT FOURCHON* SUNNY     63  57  82 N8        30.09S

$$

MSZ070-080>082-241000-
SOUTHERN MISSISSIPPI

CITY           SKY/WX    TMP DP  RH WIND       PRES   REMARKS
MCCOMB         CLEAR     53  48  83 CALM      30.09S
GULFPORT       CLEAR     56  46  69 N5        30.06S
BILOXI         MOCLDY    56  48  75 CALM      30.06S
PASCAGOULA     CLEAR     46  45  96 CALM      30.07R

$$

COASTAL OBSERVATIONS
LAKE AND NEARSHORE STATIONS

STATION/POSITION TIME  TEMP    WIND        PRES    WAVE
                       AIR SEA DIR/SP/G            HT/PER
                 (UTC) (F)     (DEG/KT/KT) (MB)    (FT/S)
PASCAGOULA       0800   56     360/  7/  9 1017.2
WAVELAND YACHT   0800   59      20/  8/ 11 1017.4
GRAND ISLE       0800   68 73   10/  8/ 11 1018.2
SOUTHWEST PASS   0800   71 81              1017.2
NEW CANAL        0800   65 69   40/ 11/ 13 1018.9
SHELL BEACH      0800   66 67   30/ 13/ 14 1017.8

OFFSHORE STATIONS

STATION/POSITION TIME  TEMP    WIND        PRES    WAVE
                       AIR SEA DIR/SP/G            HT/PER
                 (UTC) (F)     (DEG/KT/KT) (MB)    (FT/S)
64 S DAUPHIN ISL 0751   72 78   20/  4/  6 1017.0    3/ 7

$$




USA.gov is the U.S. government's official web portal to all federal, state and local government web resources and services.